Regional Weather Roundup
Issued by NWS State College, PA

Home | Current Version | Previous Version | Text Only | Print | Product List | Glossary On
Versions: 1 2 3 4 5 6 7 8 9 10 11 12 13 14 15 16 17 18 19 20 21 22 23 24 25 26 27 28 29 30 31 32 33 34 35 36 37 38 39 40 41 42 43 44 45 46 47 48 49 50
000
ASUS41 KCTP 211310
RWRCTP

REGIONAL WEATHER ROUNDUP
NATIONAL WEATHER SERVICE STATE COLLEGE PA
800 AM EST SUN DEC 21 2014

Note: "fair" indicates few or no clouds below 12,000 feet with no
significant weather and/or obstructions to visibility.

* = STATION THAT DOES NOT REPORT PRECIPITATION /E.G. RAIN...SNOW...ETC/
    THUNDER OR FOG.

PAZ002>004-007>009-013>016-020>023-029>032-211400-
WESTERN PENNSYLVANIA

CITY           SKY/WX    TMP DP  RH WIND       PRES   REMARKS
ERIE           CLOUDY    30  23  75 S3        30.32R
MEADVILLE      CLOUDY    27  22  81 S3        30.27S
FRANKLIN*      CLOUDY    27  21  80 CALM      30.29S
NEW CASTLE       N/A     27  24  88 CALM      30.33R
BEAVER COUNTY  NOT AVBL
BUTLER*        CLOUDY    27  23  86 CALM      30.32R
PITTSBURGH INT CLOUDY    28  22  78 CALM      30.31R
PITTSBURGH     CLOUDY    28  18  66 W3        30.30R
INDIANA*       CLOUDY    27  25  93 CALM      30.33R
LATROBE        CLOUDY    27  25  93 CALM      30.33R
WASHINGTON CO* NOT AVBL
$$

PAZ004>006-010>012-017>019-024>028-033>037-041-042-045-046-049>053-211400-
CENTRAL PENNSYLVANIA

CITY           SKY/WX    TMP DP  RH WIND       PRES   REMARKS
BRADFORD       CLOUDY    23  19  85 W6        30.24R
DUBOIS         CLOUDY    25  21  85 NW5       30.25R
CLEARFIELD     CLOUDY    27  21  78 CALM      30.27R
JOHNSTOWN      CLOUDY    23  20  88 W5        30.22R FOG
ALTOONA        CLOUDY    25  23  92 CALM      30.28R FOG
STATE COLLEGE  CLOUDY    27  23  86 CALM      30.28R
WILLIAMSPORT   CLOUDY    31  21  66 W5        30.31R
SELINSGROVE    CLOUDY    31  23  72 W3        30.32R
FT INDIANTOWN  CLOUDY    29  22  75 W3        30.32R
CAPITAL CITY   PTCLDY    26  20  77 W3        30.34R
HARRISBURG     MOCLDY    26  21  81 NW6       30.33R
YORK           CLEAR     22  18  85 CALM      30.32R
$$

PAZ038>040-043-044-047-048-054-055-060>062-067>071-211400-
EASTERN PENNSYLVANIA

CITY           SKY/WX    TMP DP  RH WIND       PRES   REMARKS
SCRANTON       CLOUDY    29  20  69 NW5       30.28R
MOUNT POCONO   CLOUDY    24  19  81 NW7       30.21R
ALLENTOWN      CLOUDY    30  20  66 NW3       30.31R
QUAKERTOWN*    PTSUNNY   27  23  86 CALM      30.30S
READING        CLOUDY    29  22  75 CALM      30.31R
LANCASTER      CLEAR     24  21  88 W5        30.32R
COATESVILLE    SUNNY     27  25  93 W3        30.30S FOG
POTTSTOWN      CLOUDY    28  22  78 CALM      30.33R
BLUE BELL      PTCLDY    32  23  69 CALM      30.31R
DOYLESTOWN     CLOUDY    29  22  75 CALM      30.29S
WILLOW GROVE   NOT AVBL
NORTH PHILA    CLOUDY    31  21  66 W5        30.33S
PHILADELPHIA   MOCLDY    32  21  64 NW5       30.34R
$$


USA.gov is the U.S. government's official web portal to all federal, state and local government web resources and services.